Weather History for New Bern, NC

Change the Weather History Date:

Monday, February 17, 2014

  Actual Average Record
Temperature  
Mean Temperature 41 °F 47 °F  
Max Temperature 47 °F 58 °F 82 °F (1976)
Min Temperature 34 °F 36 °F 14 °F (1958)
Degree Days  
Heating Degree Days 24 18  
Month to date heating degree days 350 322  
Since 1 July heating degree days 1931 1962  
Cooling Degree Days 0 0  
Month to date cooling degree days 0 0  
Year to date cooling degree days 1 1  
Moisture  
Dew Point 27 °F    
Average Humidity 62    
Maximum Humidity 82    
Minimum Humidity 41    
Precipitation  
Precipitation 0.00 in 0.14 in 1.34 in (1983)
Month to date precipitation 2.10 2.14  
Year to date precipitation 6.07 6.16  
Snow  
Snow 0.00 in - - ()
Month to date snowfall 11.7  
Since 1 July snowfall 11.7  
Snow Depth 0.00 in    
Sea Level Pressure  
Sea Level Pressure 30.32 in    
Wind  
Wind Speed 8 mph (ENE)    
Max Wind Speed 15 mph    
Max Gust Speed 18 mph    
Visibility 10 miles    
Events      
T = Trace of Precipitation, MM = Missing Value Source: NWS Daily Summary

Daily Weather History Graph

Daily Weather History Graph

Search for Another Location

Airport:

Trip Planner

Search our weather history database for the weather conditions in past years. The results will help you decide how hot, cold, wet, or windy it might be!

Date:

Astronomy

Feb. 17, 2014 Rise Set
Actual Time 6:52 AM EST 5:52 PM EST
Civil Twilight 6:26 AM EST 6:18 PM EST
Nautical Twilight 5:56 AM EST 6:48 PM EST
Astronomical Twilight 5:27 AM EST 7:17 PM EST
Moon 8:36 PM EST (2/17) 7:58 AM EST (2/17)
Length of Visible Light 11h 52m
Length of Day
11h 00m
Waning Gibbous, 93% of the Moon is Illuminated
Feb 17
Waning Gibbous
Feb 22
Last Quarter
Mar 1
New
Mar 8
First Quarter
Mar 16
Full

Hourly Weather History & Observations

Time (EST) Temp. Windchill Dew Point Humidity Pressure Visibility Wind Dir Wind Speed Gust Speed Precip Events Conditions
12:54 AM 36.0 °F 32.1 °F 30.9 °F 82% 30.21 in 10.0 mi North 4.6 mph - N/A   Clear
1:54 AM 39.0 °F 34.0 °F 28.9 °F 67% 30.22 in 10.0 mi North 6.9 mph - N/A   Clear
2:54 AM 37.9 °F 33.5 °F 28.0 °F 68% 30.23 in 10.0 mi North 5.8 mph - N/A   Clear
3:54 AM 37.0 °F 33.3 °F 27.0 °F 67% 30.25 in 10.0 mi North 4.6 mph - N/A   Clear
4:54 AM 37.0 °F 29.3 °F 27.0 °F 67% 30.28 in 10.0 mi NNE 11.5 mph - N/A   Clear
5:54 AM 35.1 °F 28.6 °F 28.0 °F 76% 30.31 in 10.0 mi NE 8.1 mph - N/A   Clear
6:54 AM 34.0 °F 25.0 °F 26.1 °F 73% 30.33 in 10.0 mi NE 12.7 mph - N/A   Clear
7:54 AM 35.1 °F 26.9 °F 25.0 °F 67% 30.37 in 10.0 mi NE 11.5 mph - N/A   Clear
8:54 AM 37.0 °F 28.9 °F 26.1 °F 65% 30.39 in 10.0 mi NE 12.7 mph - N/A   Clear
9:54 AM 39.9 °F 32.5 °F 24.1 °F 53% 30.41 in 10.0 mi NE 12.7 mph - N/A   Clear
10:54 AM 42.1 °F 36.6 °F 23.0 °F 47% 30.41 in 10.0 mi NE 9.2 mph - N/A   Clear
11:54 AM 43.0 °F 36.4 °F 25.0 °F 49% 30.40 in 10.0 mi NE 12.7 mph - N/A   Clear
12:54 PM 44.1 °F 39.0 °F 23.0 °F 43% 30.37 in 10.0 mi NNE 9.2 mph - N/A   Clear
1:54 PM 46.0 °F 41.4 °F 24.1 °F 42% 30.35 in 10.0 mi ENE 9.2 mph - N/A   Clear
2:54 PM 46.9 °F - 24.1 °F 41% 30.34 in 10.0 mi Variable 4.6 mph - N/A   Clear
3:54 PM 45.0 °F 40.1 °F 26.1 °F 48% 30.34 in 10.0 mi East 9.2 mph - N/A   Clear
4:54 PM 41.0 °F 35.2 °F 27.0 °F 57% 30.35 in 10.0 mi ESE 9.2 mph - N/A   Clear
5:54 PM 39.0 °F 33.4 °F 27.0 °F 62% 30.35 in 10.0 mi ESE 8.1 mph - N/A   Clear
6:54 PM 37.0 °F 31.6 °F 28.0 °F 70% 30.36 in 10.0 mi East 6.9 mph - N/A   Partly Cloudy
7:54 PM 37.0 °F 32.4 °F 28.0 °F 70% 30.34 in 10.0 mi East 5.8 mph - N/A   Mostly Cloudy
8:54 PM 37.0 °F 31.6 °F 28.9 °F 73% 30.33 in 10.0 mi ENE 6.9 mph - N/A   Overcast
9:44 PM 37.4 °F 32.1 °F 28.4 °F 70% 30.34 in 10.0 mi ENE 6.9 mph - N/A   Overcast
9:54 PM 37.0 °F 31.6 °F 28.0 °F 70% 30.33 in 10.0 mi NE 6.9 mph - N/A   Overcast
10:41 PM 35.6 °F 30.7 °F 28.4 °F 75% 30.31 in 10.0 mi ENE 5.8 mph - N/A   Mostly Cloudy
10:54 PM 36.0 °F 32.1 °F 28.0 °F 73% 30.30 in 10.0 mi East 4.6 mph - N/A   Mostly Cloudy
11:02 PM 35.6 °F 31.7 °F 28.4 °F 75% 30.29 in 10.0 mi East 4.6 mph - N/A   Mostly Cloudy
11:27 PM 35.6 °F 29.9 °F 28.4 °F 75% 30.27 in 10.0 mi East 6.9 mph - N/A   Scattered Clouds
11:54 PM 36.0 °F 30.3 °F 28.9 °F 76% 30.25 in 10.0 mi East 6.9 mph - N/A   Mostly Cloudy